| time (UTC) | temp C | wind direction | speed KPH | gust KPH | rain 1hr cm | rain 24hr cm | rain mn cm | humidity % | barometer mb |
| 20260507013051 | 16 | 0 | 0.0 | 0.0 | 0.00 | 0.00 | 0.00 | 81 | 1010.3 |
| 20260507011544 | 16 | 0 | 0.0 | 0.0 | 0.00 | 0.00 | 0.00 | 80 | 1010.3 |
| 20260507010053 | 16 | 0 | 0.0 | 1.6 | 0.00 | 0.00 | 0.00 | 80 | 1010.1 |
| 20260507004539 | 16 | 0 | 0.0 | 0.0 | 0.00 | 0.00 | 0.00 | 80 | 1010.1 |
| 20260507003039 | 16 | 0 | 0.0 | 0.0 | 0.00 | 0.00 | 0.00 | 81 | 1010.3 |
| 20260507001555 | 16 | 0 | 0.0 | 0.0 | 0.00 | 0.00 | 0.00 | 82 | 1010.4 |
| 20260507000041 | 16 | 0 | 0.0 | 0.0 | 0.00 | 0.00 | 0.00 | 83 | 1010.5 |
| 20260506234551 | 16 | 0 | 0.0 | 0.0 | 0.00 | 0.00 | 0.00 | 83 | 1010.6 |
| 20260506233054 | 17 | 0 | 0.0 | 0.0 | 0.00 | 0.00 | 0.00 | 83 | 1010.8 |
| 20260506231550 | 17 | 0 | 0.0 | 0.0 | 0.00 | 0.00 | 0.00 | 83 | 1010.8 |
| 20260506230048 | 17 | 0 | 0.0 | 0.0 | 0.00 | 0.00 | 0.00 | 83 | 1010.9 |
| 20260506224542 | 17 | 0 | 0.0 | 0.0 | 0.00 | 0.00 | 0.00 | 83 | 1010.8 |
| 20260506223040 | 17 | 0 | 0.0 | 0.0 | 0.00 | 0.00 | 0.00 | 83 | 1010.8 |
| 20260506221556 | 17 | 0 | 0.0 | 0.0 | 0.00 | 0.00 | 0.00 | 83 | 1010.8 |
| 20260506220041 | 17 | 0 | 0.0 | 0.0 | 0.00 | 0.00 | 0.00 | 84 | 1010.7 |
| 20260506214538 | 17 | 0 | 0.0 | 0.0 | 0.00 | 0.00 | 0.00 | 84 | 1011.1 |
| 20260506213042 | 17 | 0 | 0.0 | 0.0 | 0.00 | 0.00 | 0.00 | 84 | 1011.2 |
| 20260506211544 | 17 | 0 | 0.0 | 0.0 | 0.00 | 0.00 | 0.00 | 84 | 1011.2 |
| 20260506210041 | 17 | 0 | 0.0 | 0.0 | 0.00 | 0.00 | 0.00 | 85 | 1011.2 |
| 20260506204539 | 17 | 0 | 0.0 | 0.0 | 0.00 | 0.00 | 0.00 | 85 | 1011.0 |
| 20260506203039 | 17 | 0 | 0.0 | 0.0 | 0.00 | 0.00 | 0.00 | 85 | 1010.8 |
| 20260506201543 | 17 | 0 | 0.0 | 0.0 | 0.00 | 0.00 | 0.00 | 84 | 1010.7 |
| 20260506200046 | 17 | 0 | 0.0 | 0.0 | 0.00 | 0.00 | 0.00 | 84 | 1010.6 |
| 20260506194546 | 17 | 0 | 0.0 | 0.0 | 0.00 | 0.00 | 0.00 | 83 | 1010.1 |
| 20260506193038 | 17 | 0 | 0.0 | 0.0 | 0.00 | 0.00 | 0.00 | 82 | 1010.1 |
| 20260506191539 | 17 | 0 | 0.0 | 0.0 | 0.00 | 0.00 | 0.00 | 82 | 1010.0 |
| 20260506190038 | 18 | 0 | 0.0 | 1.6 | 0.00 | 0.00 | 0.00 | 81 | 1009.8 |
| 20260506184544 | 18 | 0 | 0.0 | 3.2 | 0.00 | 0.00 | 0.00 | 79 | 1009.6 |
| 20260506183041 | 18 | 0 | 0.0 | 4.8 | 0.00 | 0.00 | 0.00 | 78 | 1009.5 |
| 20260506181539 | 18 | 82 | 0.0 | 1.6 | 0.00 | 0.00 | 0.00 | 77 | 1009.6 |
| 20260506180043 | 18 | 0 | 0.0 | 4.8 | 0.00 | 0.00 | 0.00 | 76 | 1009.4 |
| 20260506174548 | 18 | 0 | 0.0 | 6.4 | 0.00 | 0.00 | 0.00 | 75 | 1009.3 |
| 20260506173056 | 19 | 64 | 0.0 | 6.4 | 0.00 | 0.00 | 0.00 | 72 | 1009.2 |
| 20260506171549 | 20 | 0 | 0.0 | 3.2 | 0.00 | 0.00 | 0.00 | 72 | 1009.2 |
| 20260506170042 | 20 | 0 | 0.0 | 3.2 | 0.00 | 0.00 | 0.00 | 71 | 1009.2 |
| 20260506164552 | 20 | 0 | 0.0 | 9.7 | 0.00 | 0.00 | 0.00 | 70 | 1009.2 |
| 20260506163047 | 20 | 117 | 0.0 | 9.7 | 0.00 | 0.00 | 0.00 | 69 | 1008.9 |
| 20260506161551 | 20 | 110 | 0.0 | 6.4 | 0.00 | 0.00 | 0.00 | 69 | 1008.9 |
| 20260506160050 | 20 | 0 | 0.0 | 14.5 | 0.00 | 0.00 | 0.00 | 70 | 1008.9 |
| 20260506154551 | 21 | 122 | 3.2 | 17.7 | 0.00 | 0.00 | 0.00 | 68 | 1008.8 |
| 20260506153045 | 21 | 0 | 1.6 | 12.9 | 0.00 | 0.00 | 0.00 | 68 | 1008.9 |
| 20260506151549 | 21 | 143 | 1.6 | 16.1 | 0.00 | 0.00 | 0.00 | 69 | 1009.0 |
| 20260506150038 | 21 | 53 | 0.0 | 17.7 | 0.00 | 0.00 | 0.00 | 69 | 1009.1 |
| 20260506144546 | 21 | 37 | 0.0 | 16.1 | 0.00 | 0.00 | 0.00 | 69 | 1008.9 |
| 20260506143042 | 21 | 91 | 1.6 | 14.5 | 0.00 | 0.00 | 0.00 | 68 | 1009.2 |
| 20260506141554 | 21 | 0 | 1.6 | 14.5 | 0.00 | 0.00 | 0.00 | 69 | 1009.2 |
| 20260506140048 | 21 | 0 | 0.0 | 12.9 | 0.00 | 0.00 | 0.00 | 69 | 1009.3 |
| 20260506134538 | 21 | 0 | 1.6 | 17.7 | 0.00 | 0.00 | 0.00 | 70 | 1009.4 |
| 20260506133045 | 21 | 0 | 0.0 | 22.5 | 0.00 | 0.00 | 0.00 | 69 | 1009.4 |
| 20260506131544 | 21 | 107 | 1.6 | 16.1 | 0.00 | 0.00 | 0.00 | 68 | 1009.4 |
| 20260506130042 | 22 | 0 | 0.0 | 11.3 | 0.00 | 0.00 | 0.00 | 66 | 1009.4 |
| 20260506124542 | 22 | 53 | 0.0 | 11.3 | 0.00 | 0.00 | 0.00 | 65 | 1009.6 |
| 20260506123043 | 22 | 0 | 3.2 | 12.9 | 0.00 | 0.00 | 0.00 | 66 | 1009.8 |
| 20260506121538 | 22 | 74 | 0.0 | 16.1 | 0.00 | 0.00 | 0.00 | 63 | 1009.7 |
| 20260506120107 | 22 | 142 | 0.0 | 16.1 | 0.00 | 0.00 | 0.00 | 64 | 1009.9 |
| 20260506114545 | 22 | 0 | 0.0 | 14.5 | 0.00 | 0.00 | 0.00 | 65 | 1010.1 |
| 20260506113040 | 22 | 48 | 0.0 | 12.9 | 0.00 | 0.00 | 0.00 | 64 | 1010.1 |
| 20260506111540 | 22 | 139 | 0.0 | 9.7 | 0.00 | 0.00 | 0.00 | 63 | 1010.0 |
| 20260506110038 | 22 | 0 | 0.0 | 11.3 | 0.00 | 0.00 | 0.00 | 64 | 1010.0 |
| 20260506104540 | 21 | 0 | 0.0 | 4.8 | 0.00 | 0.00 | 0.00 | 65 | 1010.2 |
| 20260506103043 | 22 | 120 | 0.0 | 8.0 | 0.00 | 0.00 | 0.00 | 62 | 1010.2 |
| 20260506101542 | 22 | 0 | 0.0 | 6.4 | 0.00 | 0.00 | 0.00 | 61 | 1010.3 |
| 20260506100039 | 22 | 0 | 0.0 | 3.2 | 0.00 | 0.00 | 0.00 | 62 | 1010.4 |
| 20260506094545 | 21 | 0 | 0.0 | 4.8 | 0.00 | 0.00 | 0.00 | 62 | 1010.4 |
| 20260506093045 | 21 | 0 | 0.0 | 3.2 | 0.00 | 0.00 | 0.00 | 64 | 1010.3 |
| 20260506091544 | 20 | 0 | 0.0 | 3.2 | 0.00 | 0.00 | 0.00 | 68 | 1010.2 |
| 20260506090043 | 20 | 0 | 0.0 | 3.2 | 0.00 | 0.00 | 0.00 | 68 | 1010.0 |
| 20260506084541 | 20 | 0 | 0.0 | 3.2 | 0.00 | 0.00 | 0.00 | 68 | 1010.1 |
| 20260506083043 | 21 | 0 | 0.0 | 0.0 | 0.00 | 0.00 | 0.00 | 71 | 1010.2 |
| 20260506081540 | 20 | 0 | 0.0 | 0.0 | 0.00 | 0.00 | 0.00 | 70 | 1010.1 |
| 20260506073041 | 18 | 0 | 0.0 | 0.0 | 0.00 | 0.00 | 0.00 | 73 | 1010.0 |
| 20260506071549 | 17 | 0 | 0.0 | 0.0 | 0.00 | 0.00 | 0.00 | 72 | 1010.1 |
| 20260506061543 | 13 | 0 | 0.0 | 0.0 | 0.00 | 0.00 | 0.00 | 80 | 1010.1 |
| 20260506044553 | 13 | 0 | 0.0 | 0.0 | 0.00 | 0.00 | 0.00 | 76 | 1009.0 |
| 20260506043040 | 13 | 0 | 0.0 | 0.0 | 0.00 | 0.00 | 0.00 | 76 | 1008.9 |
| 20260506041552 | 13 | 0 | 0.0 | 0.0 | 0.00 | 0.00 | 0.00 | 77 | 1008.9 |
| 20260506040050 | 13 | 0 | 0.0 | 0.0 | 0.00 | 0.00 | 0.00 | 77 | 1008.8 |
| 20260506034543 | 14 | 0 | 0.0 | 0.0 | 0.00 | 0.00 | 0.00 | 77 | 1008.8 |
| 20260506033043 | 14 | 0 | 0.0 | 0.0 | 0.00 | 0.00 | 0.00 | 76 | 1008.8 |
| 20260506031555 | 15 | 0 | 0.0 | 1.6 | 0.00 | 0.00 | 0.00 | 75 | 1008.7 |
| 20260506030056 | 15 | 0 | 0.0 | 0.0 | 0.00 | 0.00 | 0.00 | 75 | 1008.6 |
| 20260506024540 | 15 | 0 | 0.0 | 1.6 | 0.00 | 0.00 | 0.00 | 76 | 1008.6 |
| 20260506023038 | 15 | 0 | 0.0 | 0.0 | 0.00 | 0.00 | 0.00 | 78 | 1008.5 |
| 20260506021543 | 14 | 0 | 0.0 | 0.0 | 0.00 | 0.00 | 0.00 | 79 | 1008.7 |
| 20260506020041 | 15 | 0 | 0.0 | 0.0 | 0.00 | 0.00 | 0.00 | 77 | 1008.8 |
| 20260506014542 | 15 | 0 | 0.0 | 0.0 | 0.00 | 0.00 | 0.00 | 78 | 1008.8 |